TimeAKDT,TemperatureF,Dew PointF,Humidity,Sea Level PressureIn,VisibilityMPH,Wind Direction,Wind SpeedMPH,Gust SpeedMPH,PrecipitationIn,Events,Conditions,WindDirDegrees,DateUTC
12:53 AM,34.0,25.0,70,30.42,10.0,North,8.1,-,N/A,,Overcast,360,2013-04-21 08:53:00
1:53 AM,34.0,24.1,67,30.41,10.0,North,3.5,-,N/A,,Mostly Cloudy,350,2013-04-21 09:53:00
2:53 AM,32.0,26.1,79,30.40,10.0,Calm,Calm,-,N/A,,Mostly Cloudy,0,2013-04-21 10:53:00
3:53 AM,30.9,26.1,82,30.40,10.0,Calm,Calm,-,N/A,,Mostly Cloudy,0,2013-04-21 11:53:00
4:53 AM,30.9,25.0,79,30.39,10.0,Calm,Calm,-,N/A,,Mostly Cloudy,0,2013-04-21 12:53:00
5:53 AM,30.9,26.1,82,30.38,10.0,North,4.6,-,N/A,,Overcast,350,2013-04-21 13:53:00
6:53 AM,32.0,26.1,79,30.37,10.0,North,4.6,-,N/A,,Overcast,350,2013-04-21 14:53:00
7:53 AM,34.0,26.1,73,30.35,10.0,NW,4.6,-,N/A,,Mostly Cloudy,320,2013-04-21 15:53:00
8:53 AM,37.0,26.1,65,30.34,10.0,Calm,Calm,-,N/A,,Overcast,0,2013-04-21 16:53:00
9:53 AM,37.9,28.0,68,30.33,10.0,ESE,5.8,-,N/A,,Overcast,120,2013-04-21 17:53:00
10:53 AM,39.9,26.1,58,30.33,10.0,Calm,Calm,-,N/A,,Overcast,0,2013-04-21 18:53:00
11:53 AM,42.1,26.1,53,30.32,10.0,North,4.6,-,N/A,,Overcast,10,2013-04-21 19:53:00
12:53 PM,42.1,27.0,55,30.32,10.0,NNE,10.4,16.1,N/A,,Overcast,20,2013-04-21 20:53:00
1:53 PM,42.1,26.1,53,30.31,10.0,North,9.2,-,N/A,,Overcast,10,2013-04-21 21:53:00
2:53 PM,42.1,26.1,53,30.30,10.0,North,12.7,18.4,N/A,,Overcast,360,2013-04-21 22:53:00
3:53 PM,41.0,28.0,60,30.29,10.0,North,13.8,24.2,N/A,,Overcast,360,2013-04-21 23:53:00
4:53 PM,39.9,28.0,63,30.29,10.0,North,15.0,-,N/A,,Overcast,350,2013-04-22 00:53:00
5:53 PM,41.0,26.1,55,30.29,10.0,North,8.1,-,N/A,,Overcast,350,2013-04-22 01:53:00
6:53 PM,39.0,27.0,62,30.29,10.0,North,10.4,19.6,0.00,,Overcast,350,2013-04-22 02:53:00
7:04 PM,39.2,28.4,65,30.28,10.0,North,10.4,-,N/A,,Overcast,360,2013-04-22 03:04:00
7:19 PM,39.2,28.4,65,30.28,10.0,North,15.0,24.2,N/A,,Overcast,350,2013-04-22 03:19:00
7:53 PM,39.0,27.0,62,30.28,10.0,NNW,18.4,23.0,N/A,,Overcast,340,2013-04-22 03:53:00
8:53 PM,39.0,26.1,60,30.28,10.0,NNW,20.7,26.5,N/A,,Overcast,340,2013-04-22 04:53:00
9:53 PM,39.0,27.0,62,30.31,10.0,NNW,17.3,25.3,N/A,,Overcast,340,2013-04-22 05:53:00
10:53 PM,39.0,26.1,60,30.33,10.0,NNW,11.5,-,N/A,,Mostly Cloudy,340,2013-04-22 06:53:00
11:53 PM,39.0,24.1,55,30.34,10.0,NNW,15.0,23.0,N/A,,Clear,330,2013-04-22 07:53:00